Location: Unspecified
(0.0000°N, 0.0000°E)
Time: 10:37:20
(UTC+00:00)

Envisat - Pass Details

Date: 20 January 2019
Orbit: 764 x 766 km, 98.2° (Epoch: 16 January)

Event Time Altitude Azimuth Distance (km) Brightness Sun altitude
Rises 19:28:01 0° 177° (S) 3,230 6.5 -18.0°
Reaches altitude 10° 19:30:22 10° 181° (S) 2,301 5.7 -18.6°
Maximum altitude 19:35:19 54° 258° (WSW) 923 3.7 -19.7°
Drops below altitude 10° 19:40:14 10° 335° (NNW) 2,291 5.5 -20.9°
Sets 19:42:35 0° 339° (NNW) 3,214 6.2 -21.4°
